Date,TemperatureHighF,TemperatureAvgF,TemperatureLowF,DewpointHighF,DewpointAvgF,DewpointLowF,HumidityHigh,HumidityAvg,HumidityLow,PressureMaxIn,PressureMinIn,WindSpeedMaxMPH,WindSpeedAvgMPH,GustSpeedMaxMPH,PrecipitationSumIn
2013-1-1,44,33,23,25,22,18,86,67,39,30.45,30.32,3,0,5,0.01
2013-1-2,51,39,25,28,24,19,79,56,38,30.35,30.19,6,1,10,0.00
2013-1-3,46,36,29,34,27,19,85,69,47,30.39,30.18,15,4,20,0.00
2013-1-4,46,36,29,31,28,25,87,74,54,30.49,30.38,12,2,16,0.00
2013-1-5,57,38,23,30,24,13,91,60,18,30.54,30.42,2,0,5,0.00
2013-1-6,57,46,39,26,20,9,56,37,26,30.43,30.05,14,3,20,0.00
2013-1-7,56,44,31,27,20,8,71,43,15,30.06,29.88,5,1,9,0.00
2013-1-8,60,46,35,29,24,18,70,45,23,30.22,29.98,9,1,12,0.00
2013-1-9,60,46,30,23,19,14,67,36,17,30.38,30.21,6,1,10,0.00
2013-1-10,63,48,32,25,19,10,57,33,17,30.21,29.93,30,6,43,0.00
2013-1-11,50,38,25,31,15,6,76,41,19,30.10,29.91,25,3,37,0.00
2013-1-12,37,26,17,14,9,6,69,50,28,30.35,30.09,11,1,18,0.00
2013-1-13,44,28,15,11,5,-4,71,41,14,30.35,30.18,9,1,12,0.00
2013-1-14,39,26,16,9,4,-1,64,41,22,30.41,30.24,13,2,20,0.00
2013-1-15,38,25,13,6,1,-6,62,38,16,30.62,30.40,7,1,9,0.00
2013-1-16,53,36,17,11,5,-1,54,29,14,30.65,30.48,11,1,15,0.00
2013-1-17,61,48,36,15,12,8,33,23,16,30.49,30.33,10,2,13,0.00
2013-1-18,64,47,29,16,13,9,50,27,14,30.42,30.27,10,3,13,0.00
2013-1-19,69,51,31,30,22,11,64,36,16,30.38,30.23,6,0,8,0.00
2013-1-20,70,54,36,34,28,22,61,38,24,30.30,30.10,4,0,7,0.00
2013-1-21,70,54,42,36,31,28,64,43,25,30.21,30.10,5,0,8,0.00
2013-1-22,71,54,38,35,29,23,71,42,18,30.30,30.20,5,0,7,0.00
2013-1-23,72,55,37,32,29,27,67,40,21,30.34,30.22,6,0,9,0.00
2013-1-24,68,57,49,42,37,32,62,49,29,30.32,30.22,5,0,9,0.00
2013-1-25,70,59,47,48,42,39,76,55,36,30.29,30.05,9,1,14,0.00
2013-1-26,64,56,49,52,46,39,94,70,43,30.06,29.93,18,4,24,0.25
2013-1-27,61,52,46,48,43,37,96,74,46,30.09,30.02,14,3,20,0.12
2013-1-28,52,46,33,42,36,24,93,68,46,30.05,29.95,19,6,31,0.18
2013-1-29,44,36,29,31,23,17,93,63,35,30.36,30.05,15,4,22,0.03
2013-1-30,50,38,27,24,18,9,76,48,21,30.53,30.36,7,1,13,0.00
2013-1-31,59,43,31,30,23,18,70,48,25,30.43,30.29,4,0,6,0.00